FW4463 Weather Reports


time (UTC)temp
C
wind
direction
speed
KPH
gust
KPH
rain 1hr
cm
rain 24hr
cm
rain mn
cm
humidity
%
barometer
mb
20260503192757 18 171 1.6 8.0 0.00 0.00 0.00 46 1013.3
20260503192250 18 296 1.6 4.8 0.00 0.00 0.00 46 1013.2
20260503191745 18 327 1.6 8.0 0.00 0.00 0.00 46 1013.3
20260503191244 18 317 1.6 8.0 0.00 0.00 0.00 45 1013.3
20260503190735 18 24 0.0 4.8 0.00 0.00 0.00 46 1013.3
20260503190234 17 312 0.0 6.4 0.00 0.00 0.00 48 1013.3
20260503185730 16 273 1.6 6.4 0.00 0.00 0.00 48 1013.4
20260503185229 16 246 1.6 6.4 0.00 0.00 0.00 48 1013.3
20260503184729 16 288 0.0 6.4 0.00 0.00 0.00 50 1013.4
20260503184229 16 257 0.0 6.4 0.00 0.00 0.00 51 1013.4
20260503183729 15 301 0.0 4.8 0.00 0.00 0.00 51 1013.4
20260503183230 15 315 0.0 4.8 0.00 0.00 0.00 52 1013.4
20260503182729 15 228 1.6 4.8 0.00 0.00 0.00 52 1013.5
20260503182232 15 244 1.6 6.4 0.00 0.00 0.00 51 1013.5
20260503181729 15 259 1.6 9.7 0.00 0.00 0.00 51 1013.4
20260503181229 16 303 1.6 9.7 0.00 0.00 0.00 50 1013.3
20260503180733 16 290 1.6 9.7 0.00 0.00 0.00 49 1013.4
20260503180459 17 272 1.6 6.4 0.00 0.00 0.00 48 1013.4
20260503175730 17 336 1.6 6.4 0.00 0.00 0.00 48 1013.3
20260503175230 17 140 1.6 11.3 0.00 0.00 0.00 49 1013.2
20260503174729 16 82 3.2 12.9 0.00 0.00 0.00 50 1013.2
20260503174228 16 116 3.2 12.9 0.00 0.00 0.00 51 1013.1
20260503173950 15 110 1.6 8.0 0.00 0.00 0.00 51 1013.2
20260503173216 15 127 1.6 6.4 0.00 0.00 0.00 53 1013.2
20260503172713 15 109 1.6 6.4 0.00 0.00 0.00 54 1013.2
20260503172211 15 181 1.6 6.4 0.00 0.00 0.00 54 1013.2
20260503171712 15 88 1.6 8.0 0.00 0.00 0.00 54 1013.2
20260503171211 15 114 1.6 9.7 0.00 0.00 0.00 52 1013.3
20260503170711 15 194 1.6 9.7 0.00 0.00 0.00 51 1013.2
20260503170211 15 106 1.6 4.8 0.00 0.00 0.00 52 1013.3
20260503150644 13 225 0.0 1.6 0.00 0.00 0.00 53 1012.6
20260503150143 13 116 0.0 1.6 0.00 0.00 0.00 53 1012.5
20260503140132 12 99 0.0 1.6 0.00 0.00 0.00 55 1012.1
20260503131349 12 23 0.0 1.6 0.00 0.00 0.00 56 1011.2
20260503130852 12 273 0.0 1.6 0.00 0.00 0.00 56 1011.1
20260503130129 12 273 0.0 1.6 0.00 0.00 0.00 56 1011.1
20260503110602 12 139 0.0 1.6 0.00 0.00 0.00 56 1011.2
20260503090246 12 288 0.0 4.8 0.00 0.00 0.00 55 1011.5
20260503081507 12 300 0.0 1.6 0.00 0.00 0.00 55 1011.8
20260503081005 12 134 0.0 1.6 0.00 0.00 0.00 55 1011.9
20260503080736 12 86 0.0 1.6 0.00 0.00 0.00 56 1012.0
20260503072002 12 105 0.0 4.8 0.00 0.00 0.00 57 1012.0
20260503071501 12 313 0.0 4.8 0.00 0.00 0.00 57 1012.0
20260503071005 12 225 0.0 3.2 0.00 0.00 0.00 56 1012.0
20260503070502 12 99 0.0 3.2 0.00 0.00 0.00 56 1012.0
20260503054944 12 101 0.0 4.8 0.00 0.00 0.00 56 1012.3
20260503054444 12 97 0.0 6.4 0.00 0.00 0.00 56 1012.3
20260503053942 12 109 0.0 6.4 0.00 0.00 0.00 55 1012.4
20260503053440 12 121 0.0 3.2 0.00 0.00 0.00 55 1012.4
20260503052938 12 85 0.0 3.2 0.00 0.00 0.00 55 1012.4
20260503052437 12 146 0.0 6.4 0.00 0.00 0.00 55 1012.5
20260503051936 12 321 0.0 6.4 0.00 0.00 0.00 55 1012.5
20260503051438 12 117 0.0 3.2 0.00 0.00 0.00 55 1012.4
20260503050937 12 160 0.0 3.2 0.00 0.00 0.00 55 1012.4
20260503050435 12 139 0.0 6.4 0.00 0.00 0.00 56 1012.5
20260503045934 12 36 0.0 6.4 0.00 0.00 0.00 56 1012.5
20260503045434 12 34 0.0 1.6 0.00 0.00 0.00 56 1012.4
20260503044934 12 310 0.0 3.2 0.00 0.00 0.00 56 1012.4
20260503044434 12 278 0.0 3.2 0.00 0.00 0.00 56 1012.4
20260503043934 12 218 0.0 3.2 0.00 0.00 0.00 56 1012.4
20260503043432 12 153 0.0 6.4 0.00 0.00 0.00 56 1012.4
20260503042930 12 261 0.0 6.4 0.00 0.00 0.00 56 1012.4
20260503042430 12 122 0.0 4.8 0.00 0.00 0.00 56 1012.2
20260503041925 12 141 0.0 4.8 0.00 0.00 0.00 56 1012.2
20260503041420 12 241 0.0 4.8 0.00 0.00 0.00 56 1012.2
20260503040918 12 229 0.0 3.2 0.00 0.00 0.00 56 1012.2
20260503040418 12 138 0.0 3.2 0.00 0.00 0.00 56 1012.2
20260503035916 12 253 0.0 3.2 0.00 0.00 0.00 56 1012.2
20260503035414 12 221 0.0 6.4 0.00 0.00 0.00 56 1012.2
20260503034913 12 134 0.0 6.4 0.00 0.00 0.00 56 1012.1
20260503034646 12 93 0.0 4.8 0.00 0.00 0.00 56 1012.1
20260503033909 12 203 0.0 4.8 0.00 0.00 0.00 57 1012.1
20260503033407 12 200 0.0 4.8 0.00 0.00 0.00 56 1012.0
20260503032909 12 250 0.0 6.4 0.00 0.00 0.00 56 1012.0
20260503032406 12 314 0.0 6.4 0.00 0.00 0.00 56 1012.0
20260503031908 13 317 0.0 3.2 0.00 0.00 0.00 56 1012.0
20260503031406 13 195 0.0 3.2 0.00 0.00 0.00 56 1011.8
20260503030904 12 71 0.0 4.8 0.00 0.00 0.00 56 1011.8
20260503030404 12 86 0.0 4.8 0.00 0.00 0.00 56 1011.6
20260503025904 13 250 0.0 3.2 0.00 0.00 0.00 57 1011.6
20260503025404 13 296 0.0 4.8 0.00 0.00 0.00 57 1011.5
20260503024904 13 265 1.6 4.8 0.00 0.00 0.00 57 1011.6
20260503024401 13 318 1.6 8.0 0.00 0.00 0.00 57 1011.7
20260503023900 13 286 0.0 8.0 0.00 0.00 0.00 57 1011.6
20260503023629 13 48 0.0 6.4 0.00 0.00 0.00 57 1011.7
20260503022900 13 293 1.6 6.4 0.00 0.00 0.00 57 1011.6
20260503022401 13 321 1.6 6.4 0.00 0.00 0.00 56 1011.7
20260503021902 13 115 0.0 4.8 0.00 0.00 0.00 56 1011.7
20260503021401 13 220 0.0 8.0 0.00 0.00 0.00 56 1011.6
20260503020900 13 252 0.0 8.0 0.00 0.00 0.00 56 1011.6
20260503020401 13 196 0.0 6.4 0.00 0.00 0.00 56 1011.7
20260503015900 13 217 0.0 9.7 0.00 0.00 0.00 56 1011.7
20260503015632 14 90 0.0 9.7 0.00 0.00 0.00 55 1011.7
20260503014901 14 271 0.0 4.8 0.00 0.00 0.00 55 1011.7
20260503014635 14 130 0.0 4.8 0.00 0.00 0.00 55 1011.7
20260503013901 14 159 0.0 4.8 0.00 0.00 0.00 54 1011.8
20260503013402 14 292 0.0 4.8 0.00 0.00 0.00 54 1011.8
20260503012902 14 227 1.6 4.8 0.00 0.00 0.00 53 1011.9
20260503012402 15 307 1.6 6.4 0.00 0.00 0.00 53 1012.0
20260503011902 15 323 1.6 9.7 0.00 0.00 0.00 52 1012.0
20260503011403 15 336 1.6 9.7 0.00 0.00 0.00 52 1012.0
20260503010900 15 252 1.6 11.3 0.00 0.00 0.00 51 1012.0
20260503010401 15 331 1.6 11.3 0.00 0.00 0.00 50 1012.0
20260503005900 15 255 1.6 11.3 0.00 0.00 0.00 50 1012.1
20260503005401 15 256 1.6 11.3 0.00 0.00 0.00 50 1012.1
20260503005129 15 252 1.6 8.0 0.00 0.00 0.00 50 1012.0
20260503004401 15 229 3.2 12.9 0.00 0.00 0.00 50 1012.1
20260503003901 15 18 3.2 12.9 0.00 0.00 0.00 49 1012.0
20260503003401 16 278 1.6 9.7 0.00 0.00 0.00 49 1012.0
20260503002900 16 271 1.6 6.4 0.00 0.00 0.00 49 1012.0
20260503002401 16 284 3.2 12.9 0.00 0.00 0.00 49 1012.1
20260503002128 16 284 3.2 11.3 0.00 0.00 0.00 48 1012.2
20260503002105 16 237 1.6 12.9 0.00 0.00 0.00 49 1012.1
20260503001130 16 274 3.2 11.3 0.00 0.00 0.00 48 1012.1
20260503000403 16 284 3.2 9.7 0.00 0.00 0.00 48 1012.0
20260502235902 16 293 1.6 12.9 0.00 0.00 0.00 47 1012.0
20260502235404 17 349 1.6 12.9 0.00 0.00 0.00 47 1012.2
20260502235351 17 328 3.2 12.9 0.00 0.00 0.00 47 1012.2
20260502234359 17 245 1.6 9.7 0.00 0.00 0.00 47 1012.2
20260502233853 17 309 1.6 8.0 0.00 0.00 0.00 48 1012.3
20260502233350 17 282 3.2 9.7 0.00 0.00 0.00 46 1012.3
20260502232843 17 253 1.6 9.7 0.00 0.00 0.00 45 1012.3
20260502232333 18 239 0.0 4.8 0.00 0.00 0.00 45 1012.3
20260502231831 18 206 1.6 4.8 0.00 0.00 0.00 46 1012.4
20260502231333 17 119 1.6 6.4 0.00 0.00 0.00 47 1012.4
20260502230831 17 346 1.6 6.4 0.00 0.00 0.00 46 1012.5
20260502230331 17 209 1.6 6.4 0.00 0.00 0.00 45 1012.6
20260502225829 18 244 1.6 4.8 0.00 0.00 0.00 45 1012.7
20260502225328 17 306 1.6 4.8 0.00 0.00 0.00 46 1012.8
20260502224826 17 227 1.6 4.8 0.00 0.00 0.00 45 1012.7
20260502224323 17 292 1.6 4.8 0.00 0.00 0.00 46 1012.9
20260502223824 17 192 1.6 12.9 0.00 0.00 0.00 45 1013.0
20260502223549 17 246 1.6 12.9 0.00 0.00 0.00 46 1013.0
20260502222828 18 72 0.0 4.8 0.00 0.00 0.00 45 1013.1
20260502222324 18 155 1.6 11.3 0.00 0.00 0.00 45 1013.2
20260502221822 18 251 1.6 11.3 0.00 0.00 0.00 45 1013.3
20260502221322 18 233 1.6 6.4 0.00 0.00 0.00 43 1013.4
20260502220820 19 96 1.6 3.2 0.00 0.00 0.00 43 1013.5
20260502220319 18 123 1.6 3.2 0.00 0.00 0.00 44 1013.6
20260502215824 18 150 1.6 6.4 0.00 0.00 0.00 45 1013.5
20260502215318 18 217 1.6 6.4 0.00 0.00 0.00 44 1013.5
20260502214815 18 117 1.6 9.7 0.00 0.00 0.00 45 1013.5
20260502214314 17 101 1.6 9.7 0.00 0.00 0.00 46 1013.6
20260502213815 17 105 3.2 8.0 0.00 0.00 0.00 47 1013.6
20260502213541 17 125 3.2 11.3 0.00 0.00 0.00 46 1013.6
20260502212814 17 125 1.6 11.3 0.00 0.00 0.00 46 1013.6
20260502212313 17 134 1.6 8.0 0.00 0.00 0.00 46 1013.6
20260502211812 17 332 1.6 6.4 0.00 0.00 0.00 46 1013.6
20260502211313 17 111 1.6 9.7 0.00 0.00 0.00 46 1013.6
20260502211039 17 252 1.6 9.7 0.00 0.00 0.00 47 1013.8
20260502210308 17 134 1.6 8.0 0.00 0.00 0.00 46 1013.8
20260502205808 17 142 0.0 6.4 0.00 0.00 0.00 47 1013.9
20260502205533 16 167 1.6 11.3 0.00 0.00 0.00 47 1013.9
20260502204807 16 146 1.6 11.3 0.00 0.00 0.00 47 1014.1
20260502204309 16 217 1.6 6.4 0.00 0.00 0.00 48 1013.9
20260502204035 16 107 1.6 8.0 0.00 0.00 0.00 48 1014.0
20260502203307 16 159 1.6 8.0 0.00 0.00 0.00 48 1014.1
20260502202808 16 112 1.6 11.3 0.00 0.00 0.00 48 1014.1
20260502202308 16 115 1.6 11.3 0.00 0.00 0.00 49 1014.2
20260502201804 16 96 1.6 9.7 0.00 0.00 0.00 49 1014.2
20260502201529 16 39 1.6 8.0 0.00 0.00 0.00 49 1014.2
20260502200803 15 141 1.6 6.4 0.00 0.00 0.00 49 1014.3
20260502200303 15 86 1.6 4.8 0.00 0.00 0.00 50 1014.3
20260502195803 15 121 1.6 4.8 0.00 0.00 0.00 49 1014.3
20260502195527 15 184 1.6 6.4 0.00 0.00 0.00 50 1014.3
20260502194806 15 29 0.0 6.4 0.00 0.00 0.00 49 1014.3
20260502194304 15 195 0.0 4.8 0.00 0.00 0.00 50 1014.3
20260502193804 15 82 0.0 4.8 0.00 0.00 0.00 50 1014.5
20260502193304 15 69 1.6 14.5 0.00 0.00 0.00 50 1014.4